YO8SDE-8 Weather Reports


time (UTC)temp
C
wind
direction
speed
KPH
gust
KPH
rain 1hr
cm
rain 24hr
cm
rain mn
cm
humidity
%
barometer
mb
20260507120557 30 135 19.3 29.0 0.00 0.00 0.00 33 1000.7
20260507120057 30 112 20.9 29.0 0.00 0.00 0.00 33 1000.9
20260507115557 30 135 22.5 29.0 0.00 0.00 0.00 34 1000.9
20260507115057 30 90 19.3 25.7 0.00 0.00 0.00 34 1000.8
20260507114557 30 112 19.3 27.4 0.00 0.00 0.00 34 1000.9
20260507114057 30 90 16.1 29.0 0.00 0.00 0.00 34 1001.0
20260507113557 29 112 16.1 27.4 0.00 0.00 0.00 34 1000.9
20260507113057 30 90 16.1 25.7 0.00 0.00 0.00 34 1001.0
20260507112557 30 135 24.1 25.7 0.00 0.00 0.00 34 1001.0
20260507112057 30 112 12.9 30.6 0.00 0.00 0.00 35 1001.1
20260507111557 29 135 14.5 24.1 0.00 0.00 0.00 35 1001.1
20260507111057 28 112 9.7 24.1 0.00 0.00 0.00 35 1001.1
20260507110557 29 112 17.7 29.0 0.00 0.00 0.00 35 1001.2
20260507110057 30 112 19.3 19.3 0.00 0.00 0.00 35 1001.2
20260507105557 30 90 8.0 27.4 0.00 0.00 0.00 33 1001.3
20260507105057 30 112 20.9 25.7 0.00 0.00 0.00 34 1001.3
20260507104557 30 135 12.9 19.3 0.00 0.00 0.00 35 1001.3
20260507104057 30 112 6.4 19.3 0.00 0.00 0.00 35 1001.6
20260507103557 29 112 20.9 22.5 0.00 0.00 0.00 36 1001.4
20260507103057 29 135 17.7 20.9 0.00 0.00 0.00 36 1001.5
20260507102557 29 135 8.0 25.7 0.00 0.00 0.00 34 1001.7
20260507102057 30 112 16.1 19.3 0.00 0.00 0.00 35 1001.7
20260507101557 29 135 14.5 27.4 0.00 0.00 0.00 35 1001.5
20260507101057 30 112 17.7 27.4 0.00 0.00 0.00 36 1001.7
20260507100557 30 135 6.4 24.1 0.00 0.00 0.00 36 1001.8
20260507100057 30 112 11.3 22.5 0.00 0.00 0.00 36 1001.7
20260507095557 29 112 12.9 19.3 0.00 0.00 0.00 37 1001.8
20260507095057 29 112 14.5 16.1 0.00 0.00 0.00 37 1001.8
20260507094557 28 112 14.5 17.7 0.00 0.00 0.00 37 1001.9
20260507094057 29 90 8.0 19.3 0.00 0.00 0.00 36 1001.8
20260507093557 29 112 6.4 14.5 0.00 0.00 0.00 37 1001.9
20260507093057 29 112 12.9 19.3 0.00 0.00 0.00 37 1001.9
20260507092557 29 135 12.9 19.3 0.00 0.00 0.00 37 1001.9
20260507092057 29 112 8.0 17.7 0.00 0.00 0.00 37 1002.0
20260507091557 30 112 9.7 16.1 0.00 0.00 0.00 37 1002.0
20260507091057 30 135 0.0 14.5 0.00 0.00 0.00 37 1002.1
20260507090557 29 157 0.0 12.9 0.00 0.00 0.00 37 1002.2
20260507090057 28 112 8.0 11.3 0.00 0.00 0.00 39 1002.2
20260507085557 28 157 6.4 12.9 0.00 0.00 0.00 39 1002.2
20260507085057 28 135 0.0 19.3 0.00 0.00 0.00 39 1002.2
20260507084557 28 112 9.7 11.3 0.00 0.00 0.00 39 1002.2
20260507084057 28 67 0.0 12.9 0.00 0.00 0.00 38 1002.2
20260507083557 28 112 0.0 8.0 0.00 0.00 0.00 38 1002.2
20260507083057 28 157 0.0 11.3 0.00 0.00 0.00 38 1002.1
20260507082557 28 112 9.7 9.7 0.00 0.00 0.00 39 1002.2
20260507082057 28 135 4.8 9.7 0.00 0.00 0.00 40 1002.2
20260507081557 27 67 0.0 8.0 0.00 0.00 0.00 41 1002.2
20260507081057 27 112 4.8 14.5 0.00 0.00 0.00 42 1002.1
20260507080557 26 112 0.0 8.0 0.00 0.00 0.00 44 1002.1
20260507080057 25 112 3.2 9.7 0.00 0.00 0.00 45 1002.1
20260507075557 24 135 0.0 6.4 0.00 0.00 0.00 46 1002.1
20260507075057 23 112 0.0 9.7 0.00 0.00 0.00 46 1002.2
20260507074557 23 112 0.0 12.9 0.00 0.00 0.00 46 1002.2
20260507074057 24 67 0.0 8.0 0.00 0.00 0.00 46 1002.3
20260507073557 25 67 6.4 11.3 0.00 0.00 0.00 45 1002.2
20260507073057 25 67 0.0 8.0 0.00 0.00 0.00 45 1002.3
20260507072557 25 112 3.2 6.4 0.00 0.00 0.00 45 1002.4
20260507072057 25 112 0.0 8.0 0.00 0.00 0.00 46 1002.4
20260507071557 24 90 0.0 6.4 0.00 0.00 0.00 46 1002.5
20260507071057 23 45 0.0 8.0 0.00 0.00 0.00 47 1002.4
20260507070557 23 112 0.0 9.7 0.00 0.00 0.00 48 1002.4
20260507070057 23 112 0.0 1.6 0.00 0.00 0.00 49 1002.3
20260507065557 22 67 0.0 9.7 0.00 0.00 0.00 49 1002.2
20260507065057 22 45 0.0 6.4 0.00 0.00 0.00 50 1002.3
20260507064557 21 45 0.0 6.4 0.00 0.00 0.00 51 1002.3
20260507064057 21 90 0.0 8.0 0.00 0.00 0.00 52 1002.4
20260507063557 21 112 0.0 3.2 0.00 0.00 0.00 53 1002.4
20260507063057 20 112 0.0 3.2 0.00 0.00 0.00 54 1002.3
20260507062557 20 135 3.2 6.4 0.00 0.00 0.00 54 1002.3
20260507062057 20 112 0.0 6.4 0.00 0.00 0.00 54 1002.4
20260507061557 19 112 0.0 8.0 0.00 0.00 0.00 55 1002.6
20260507061057 19 135 0.0 9.7 0.00 0.00 0.00 55 1002.6
20260507060557 18 112 0.0 6.4 0.00 0.00 0.00 55 1002.5
20260507060057 18 135 4.8 8.0 0.00 0.00 0.00 56 1002.6
20260507055557 18 135 0.0 6.4 0.00 0.00 0.00 56 1002.6
20260507055057 18 112 0.0 6.4 0.00 0.00 0.00 56 1002.7
20260507054557 18 45 0.0 0.0 0.00 0.00 0.00 56 1002.7
20260507054057 18 90 0.0 0.0 0.00 0.00 0.00 56 1002.8
20260507053557 18 90 0.0 0.0 0.00 0.00 0.00 56 1002.5
20260507053057 18 112 0.0 0.0 0.00 0.00 0.00 57 1002.6
20260507052557 18 112 0.0 0.0 0.00 0.00 0.00 57 1002.6
20260507052057 18 135 0.0 0.0 0.00 0.00 0.00 58 1002.6
20260507051557 18 135 0.0 0.0 0.00 0.00 0.00 59 1002.7
20260507051057 17 135 0.0 0.0 0.00 0.00 0.00 59 1002.6
20260507050557 17 135 0.0 0.0 0.00 0.00 0.00 60 1002.6
20260507050057 17 135 0.0 0.0 0.00 0.00 0.00 61 1002.6
20260507045557 17 135 0.0 0.0 0.00 0.00 0.00 63 1002.5
20260507045057 16 135 0.0 0.0 0.00 0.00 0.00 64 1002.5
20260507044557 16 135 0.0 0.0 0.00 0.00 0.00 64 1002.4
20260507044057 16 135 0.0 0.0 0.00 0.00 0.00 65 1002.3
20260507043557 16 135 0.0 0.0 0.00 0.00 0.00 64 1002.3
20260507043057 16 135 0.0 0.0 0.00 0.00 0.00 65 1002.4
20260507042557 15 135 0.0 0.0 0.00 0.00 0.00 66 1002.2
20260507042057 15 135 0.0 0.0 0.00 0.00 0.00 66 1002.3
20260507041557 15 135 0.0 0.0 0.00 0.00 0.00 67 1002.2
20260507041057 14 135 0.0 0.0 0.00 0.00 0.00 67 1002.3
20260507040557 13 135 0.0 0.0 0.00 0.00 0.00 67 1002.2
20260507040057 13 135 0.0 0.0 0.00 0.00 0.00 67 1002.2
20260507035557 12 135 0.0 0.0 0.00 0.00 0.00 67 1002.1
20260507035057 12 157 0.0 0.0 0.00 0.00 0.00 67 1002.1
20260507034557 12 157 0.0 0.0 0.00 0.00 0.00 67 1002.1
20260507034057 11 157 0.0 0.0 0.00 0.00 0.00 67 1002.1
20260507033557 12 157 0.0 0.0 0.00 0.00 0.00 67 1002.0
20260507033057 12 157 0.0 9.7 0.00 0.00 0.00 67 1002.0
20260507032557 10 135 6.4 9.7 0.00 0.00 0.00 66 1002.0
20260507032057 9 135 4.8 12.9 0.00 0.00 0.00 68 1001.9
20260507031557 8 90 9.7 16.1 0.00 0.00 0.00 71 1001.8
20260507031057 7 112 0.0 0.0 0.00 0.00 0.00 69 1001.8
20260507030557 7 157 0.0 0.0 0.00 0.00 0.00 68 1001.8
20260507030057 8 157 0.0 0.0 0.00 0.00 0.00 68 1001.8
20260507025557 8 157 0.0 0.0 0.00 0.00 0.00 68 1001.8
20260507025057 8 157 0.0 0.0 0.00 0.00 0.00 68 1001.8
20260507024557 8 157 0.0 0.0 0.00 0.00 0.00 68 1001.8
20260507024057 8 157 0.0 0.0 0.00 0.00 0.00 69 1001.8
20260507023557 8 135 0.0 0.0 0.00 0.00 0.00 69 1001.8
20260507023057 8 135 0.0 0.0 0.00 0.00 0.00 70 1001.8
20260507022557 8 135 0.0 0.0 0.00 0.00 0.00 70 1001.7
20260507022057 8 135 0.0 0.0 0.00 0.00 0.00 70 1001.7
20260507021557 9 135 0.0 0.0 0.00 0.00 0.00 71 1001.7
20260507021057 9 135 0.0 0.0 0.00 0.00 0.00 71 1001.7
20260507020557 10 135 0.0 0.0 0.00 0.00 0.00 71 1001.7
20260507020057 10 135 0.0 0.0 0.00 0.00 0.00 71 1001.8
20260507015557 10 135 0.0 0.0 0.00 0.00 0.00 70 1001.9
20260507015057 11 135 0.0 0.0 0.00 0.00 0.00 70 1001.9
20260507014557 11 135 0.0 0.0 0.00 0.00 0.00 71 1001.7
20260507014057 11 135 0.0 0.0 0.00 0.00 0.00 71 1001.8
20260507013557 11 135 0.0 0.0 0.00 0.00 0.00 70 1001.8
20260507013057 11 135 0.0 0.0 0.00 0.00 0.00 69 1001.8
20260507012557 11 135 0.0 0.0 0.00 0.00 0.00 69 1001.6
20260507012057 11 135 0.0 0.0 0.00 0.00 0.00 68 1001.5
20260507011557 11 135 0.0 0.0 0.00 0.00 0.00 68 1001.5
20260507011057 11 135 0.0 0.0 0.00 0.00 0.00 67 1001.5
20260507010557 12 135 0.0 0.0 0.00 0.00 0.00 67 1001.6
20260507010057 11 135 0.0 0.0 0.00 0.00 0.00 67 1001.6
20260507005557 11 135 0.0 0.0 0.00 0.00 0.00 68 1001.5
20260507005057 11 135 0.0 0.0 0.00 0.00 0.00 67 1001.4
20260507004557 11 135 0.0 0.0 0.00 0.00 0.00 66 1001.4
20260507004057 12 135 0.0 0.0 0.00 0.00 0.00 65 1001.3
20260507003557 12 135 0.0 0.0 0.00 0.00 0.00 65 1001.2
20260507003057 13 135 0.0 0.0 0.00 0.00 0.00 65 1001.2
20260507002557 13 135 0.0 0.0 0.00 0.00 0.00 65 1001.2
20260507002057 13 135 0.0 0.0 0.00 0.00 0.00 64 1001.3
20260507001557 13 112 0.0 0.0 0.00 0.00 0.00 64 1001.3
20260507001057 13 135 0.0 0.0 0.00 0.00 0.00 64 1001.4
20260507000557 13 112 0.0 0.0 0.00 0.00 0.00 65 1001.4
20260507000057 13 112 0.0 0.0 0.00 0.00 0.00 65 1001.3
20260506235558 13 112 0.0 0.0 0.00 0.00 0.00 65 1001.3
20260506235057 13 112 0.0 0.0 0.00 0.00 0.00 65 1001.2
20260506234558 13 112 0.0 0.0 0.00 0.00 0.00 65 1001.2
20260506234057 13 112 0.0 0.0 0.00 0.00 0.00 64 1001.2
20260506233558 13 112 0.0 0.0 0.00 0.00 0.00 64 1001.3
20260506233058 13 112 0.0 0.0 0.00 0.00 0.00 63 1001.3
20260506232557 13 112 0.0 0.0 0.00 0.00 0.00 63 1001.3
20260506232058 13 135 0.0 3.2 0.00 0.00 0.00 63 1001.3
20260506231558 14 135 3.2 6.4 0.00 0.00 0.00 63 1001.4
20260506231058 14 135 1.6 6.4 0.00 0.00 0.00 63 1001.5
20260506230558 14 135 4.8 4.8 0.00 0.00 0.00 62 1001.3
20260506230058 15 135 0.0 6.4 0.00 0.00 0.00 62 1001.3
20260506225558 15 135 0.0 4.8 0.00 0.00 0.00 62 1001.1
20260506225059 15 112 0.0 12.9 0.00 0.00 0.00 62 1001.1
20260506224558 15 135 8.0 12.9 0.00 0.00 0.00 63 1001.1
20260506224058 14 135 8.0 8.0 0.00 0.00 0.00 63 1001.0
20260506223558 14 135 1.6 8.0 0.00 0.00 0.00 64 1001.0
20260506223058 14 135 3.2 8.0 0.00 0.00 0.00 64 1001.1
20260506222558 13 135 4.8 6.4 0.00 0.00 0.00 63 1001.1
20260506222058 13 135 6.4 6.4 0.00 0.00 0.00 63 1001.1
20260506221558 13 135 0.0 0.0 0.00 0.00 0.00 61 1001.2
20260506221058 13 135 0.0 0.0 0.00 0.00 0.00 62 1001.1
20260506220558 13 135 0.0 0.0 0.00 0.00 0.00 62 1000.9
20260506220058 14 112 0.0 6.4 0.00 0.00 0.00 61 1000.8
20260506215558 14 112 3.2 3.2 0.00 0.00 0.00 59 1000.8
20260506215058 14 135 0.0 0.0 0.00 0.00 0.00 58 1000.8
20260506214558 15 135 0.0 0.0 0.00 0.00 0.00 57 1000.8
20260506214058 15 135 0.0 0.0 0.00 0.00 0.00 56 1000.8
20260506213558 15 135 0.0 0.0 0.00 0.00 0.00 56 1000.7
20260506213058 16 135 0.0 1.6 0.00 0.00 0.00 55 1000.7
20260506212558 16 112 4.8 8.0 0.00 0.00 0.00 54 1000.5
20260506212058 16 135 0.0 9.7 0.00 0.00 0.00 53 1000.6
20260506211558 16 112 3.2 8.0 0.00 0.00 0.00 53 1000.4
20260506211058 17 112 6.4 14.5 0.00 0.00 0.00 53 1000.4
20260506210558 17 112 0.0 9.7 0.00 0.00 0.00 53 1000.5
20260506210058 16 112 4.8 9.7 0.00 0.00 0.00 53 1000.5
20260506205558 16 112 8.0 9.7 0.00 0.00 0.00 53 1000.5
20260506205058 17 112 0.0 0.0 0.00 0.00 0.00 51 1000.4
20260506204558 17 112 0.0 6.4 0.00 0.00 0.00 50 1000.3
20260506204058 17 90 0.0 0.0 0.00 0.00 0.00 49 1000.3
20260506203558 18 112 0.0 0.0 0.00 0.00 0.00 47 1000.2
20260506203058 18 112 0.0 0.0 0.00 0.00 0.00 46 1000.2
20260506202558 18 112 0.0 9.7 0.00 0.00 0.00 45 1000.1
20260506202058 19 135 0.0 14.5 0.00 0.00 0.00 44 1000.1
20260506201558 19 112 0.0 14.5 0.00 0.00 0.00 44 1000.0
20260506201058 19 135 12.9 14.5 0.00 0.00 0.00 44 1000.1
20260506200558 19 157 6.4 12.9 0.00 0.00 0.00 44 1000.2
20260506200058 19 135 6.4 12.9 0.00 0.00 0.00 44 1000.1
20260506195558 19 135 6.4 17.7 0.00 0.00 0.00 44 1000.0
20260506195058 19 135 6.4 14.5 0.00 0.00 0.00 45 1000.1
20260506194558 19 112 6.4 12.9 0.00 0.00 0.00 45 1000.1
20260506194058 19 135 4.8 8.0 0.00 0.00 0.00 44 1000.0
20260506193558 19 112 3.2 11.3 0.00 0.00 0.00 44 1000.0
20260506193058 19 135 6.4 12.9 0.00 0.00 0.00 44 1000.0
20260506192558 19 135 9.7 9.7 0.00 0.00 0.00 45 1000.0
20260506192058 18 135 0.0 9.7 0.00 0.00 0.00 45 1000.0
20260506191558 18 112 0.0 8.0 0.00 0.00 0.00 46 1000.0
20260506191058 18 135 0.0 6.4 0.00 0.00 0.00 46 999.9
20260506190558 18 112 1.6 8.0 0.00 0.00 0.00 46 999.9
20260506190058 18 112 0.0 0.0 0.00 0.00 0.00 47 999.9
20260506185558 18 112 4.8 6.4 0.00 0.00 0.00 46 999.7
20260506185058 18 112 0.0 0.0 0.00 0.00 0.00 46 999.7
20260506184558 18 112 0.0 0.0 0.00 0.00 0.00 46 999.7
20260506184058 19 112 0.0 0.0 0.00 0.00 0.00 45 999.7
20260506183558 19 112 0.0 0.0 0.00 0.00 0.00 44 999.6
20260506183058 20 112 0.0 6.4 0.00 0.00 0.00 44 999.7
20260506182558 20 112 0.0 6.4 0.00 0.00 0.00 43 999.5
20260506182058 20 112 0.0 3.2 0.00 0.00 0.00 43 999.5
20260506181558 20 112 0.0 0.0 0.00 0.00 0.00 42 999.4
20260506181058 20 112 0.0 0.0 0.00 0.00 0.00 41 999.6
20260506180558 20 112 0.0 0.0 0.00 0.00 0.00 41 999.5
20260506180058 21 135 0.0 4.8 0.00 0.00 0.00 40 999.3
20260506175558 21 112 0.0 6.4 0.00 0.00 0.00 40 999.2
20260506175058 21 112 4.8 8.0 0.00 0.00 0.00 40 999.2
20260506174558 21 135 6.4 8.0 0.00 0.00 0.00 39 999.0
20260506174058 22 112 6.4 19.3 0.00 0.00 0.00 39 998.9
20260506173558 22 112 19.3 19.3 0.00 0.00 0.00 38 998.9
20260506173058 22 112 8.0 14.5 0.00 0.00 0.00 38 998.9
20260506172558 22 135 14.5 16.1 0.00 0.00 0.00 37 998.8
20260506172058 22 135 8.0 16.1 0.00 0.00 0.00 36 998.9
20260506171558 23 135 4.8 16.1 0.00 0.00 0.00 36 998.8
20260506171058 23 112 8.0 16.1 0.00 0.00 0.00 34 998.9
20260506170558 23 135 9.7 14.5 0.00 0.00 0.00 34 998.9
20260506170058 23 135 8.0 20.9 0.00 0.00 0.00 34 999.0
20260506165558 24 135 16.1 16.1 0.00 0.00 0.00 33 998.9
20260506165058 24 135 8.0 16.1 0.00 0.00 0.00 33 998.9
20260506164558 25 112 6.4 24.1 0.00 0.00 0.00 32 998.9
20260506164058 25 112 9.7 11.3 0.00 0.00 0.00 31 998.9
20260506163558 25 135 8.0 20.9 0.00 0.00 0.00 31 998.9
20260506163058 25 112 6.4 19.3 0.00 0.00 0.00 30 998.9
20260506162558 26 112 8.0 24.1 0.00 0.00 0.00 29 998.8
20260506162058 26 135 8.0 19.3 0.00 0.00 0.00 28 998.9
20260506161558 27 135 9.7 25.7 0.00 0.00 0.00 28 998.9
20260506161058 27 157 19.3 27.4 0.00 0.00 0.00 27 998.8
20260506160558 28 135 27.4 27.4 0.00 0.00 0.00 27 998.7
20260506160058 28 112 8.0 19.3 0.00 0.00 0.00 27 998.9
20260506155558 28 112 8.0 20.9 0.00 0.00 0.00 27 998.8
20260506155058 28 135 9.7 25.7 0.00 0.00 0.00 26 998.9
20260506154558 29 135 19.3 25.7 0.00 0.00 0.00 25 998.9
20260506154058 29 135 20.9 22.5 0.00 0.00 0.00 25 998.9
20260506153558 30 90 6.4 25.7 0.00 0.00 0.00 23 999.0
20260506153058 30 135 12.9 27.4 0.00 0.00 0.00 23 998.8
20260506152558 30 112 9.7 22.5 0.00 0.00 0.00 23 998.8
20260506152058 30 112 16.1 30.6 0.00 0.00 0.00 22 998.9
20260506151558 30 112 8.0 25.7 0.00 0.00 0.00 23 998.9
20260506151058 30 135 19.3 29.0 0.00 0.00 0.00 22 998.9
20260506150558 30 90 11.3 27.4 0.00 0.00 0.00 23 998.9
20260506150058 30 135 8.0 29.0 0.00 0.00 0.00 24 998.8
20260506145558 30 112 16.1 32.2 0.00 0.00 0.00 22 998.8
20260506145058 31 112 8.0 25.7 0.00 0.00 0.00 24 998.9
20260506144558 31 135 25.7 29.0 0.00 0.00 0.00 22 998.8
20260506144058 31 135 25.7 27.4 0.00 0.00 0.00 22 998.8
20260506143558 31 112 16.1 27.4 0.00 0.00 0.00 22 998.9
20260506143058 31 135 24.1 25.7 0.00 0.00 0.00 22 998.8
20260506142558 31 112 19.3 24.1 0.00 0.00 0.00 22 998.8
20260506142058 31 90 17.7 22.5 0.00 0.00 0.00 22 998.6
20260506141558 31 112 9.7 30.6 0.00 0.00 0.00 20 998.9
20260506141058 32 135 30.6 30.6 0.00 0.00 0.00 20 998.9
20260506140558 32 112 22.5 24.1 0.00 0.00 0.00 20 998.9
20260506140058 32 135 17.7 24.1 0.00 0.00 0.00 20 999.0
20260506135558 32 135 8.0 22.5 0.00 0.00 0.00 20 998.8
20260506135058 32 135 17.7 20.9 0.00 0.00 0.00 21 999.0
20260506134558 31 112 20.9 25.7 0.00 0.00 0.00 20 999.0
20260506134058 32 135 19.3 29.0 0.00 0.00 0.00 20 998.9
20260506133558 32 135 25.7 27.4 0.00 0.00 0.00 21 998.6
20260506133058 32 112 14.5 29.0 0.00 0.00 0.00 21 998.8
20260506132558 32 135 17.7 25.7 0.00 0.00 0.00 21 998.7
20260506132058 32 157 12.9 27.4 0.00 0.00 0.00 21 998.7
20260506131558 32 135 17.7 25.7 0.00 0.00 0.00 21 998.9
20260506131058 32 135 12.9 24.1 0.00 0.00 0.00 21 998.9
20260506130558 33 112 8.0 32.2 0.00 0.00 0.00 20 998.9
20260506130058 33 112 32.2 32.2 0.00 0.00 0.00 21 999.0
20260506125558 32 112 9.7 19.3 0.00 0.00 0.00 20 999.0
20260506125058 32 135 17.7 25.7 0.00 0.00 0.00 20 999.2
20260506124558 32 135 25.7 25.7 0.00 0.00 0.00 19 999.2
20260506124058 32 135 14.5 19.3 0.00 0.00 0.00 20 999.3
20260506123558 33 112 14.5 22.5 0.00 0.00 0.00 19 999.2
20260506123058 33 135 6.4 22.5 0.00 0.00 0.00 19 999.4
20260506122558 32 112 12.9 22.5 0.00 0.00 0.00 18 999.4
20260506122058 32 112 6.4 22.5 0.00 0.00 0.00 19 999.4
20260506121558 32 112 14.5 29.0 0.00 0.00 0.00 19 999.5
20260506121058 32 135 3.2 24.1 0.00 0.00 0.00 18 999.6